SCP
1 1 1 1 1 1 1 1 2 2 2 1 1 1 1 1 1 1 1 0 0 0 0 0 0 0 0 0 0 0 0 0 0 0 0 0 0 0 0 0 0 0 0
0 1 1 1 1 1 2 2 2 2 2 2 1 1 1 1 1 1 1 1 0 0 0 0 0 0 0 0 0 0 0 0 0 0 0 0 0 0 0 0 0 0 0
0 0 1 1 1 2 2 2 2 2 2 2 2 1 1 1 1 1 1 1 1 1 1 0 0 0 0 1 0 0 0 0 0 0 0 0 0 0 0 0 0 0 0
0 0 0 1 1 2 2 2 2 2 2 2 2 2 1 1 1 1 1 1 1 1 1 0 0 0 0 1 1 0 0 0 0 0 0 0 0 0 0 0 0 0 0
0 0 0 0 1 2 2 2 2 2 2 2 2 2 1 1 1 1 1 1 1 1 1 0 0 0 0 0 1 1 0 0 0 0 0 0 0 0 0 0 0 0 0
0 0 0 0 1 2 2 2 1 1 1 1 1 1 1 1 1 1 1 1 1 1 1 1 0 0 0 0 1 1 1 1 0 0 0 0 0 0 0 0 0 0 0
0 0 0 0 1 1 2 2 2 1 1 1 1 1 1 1 1 1 1 1 1 1 1 1 1 1 1 1 1 1 1 1 1 0 0 0 0 0 0 0 0 0 0
0 0 0 0 0 1 1 2 2 1 1 1 1 1 1 1 1 0 1 1 1 1 0 0 0 1 1 1 1 1 1 1 0 0 0 0 0 0 0 0 0 0 0
0 0 0 0 0 0 1 1 2 2 1 1 1 1 1 1 1 0 0 0 0 0 0 0 0 0 0 1 1 1 1 0 0 0 0 0 0 0 0 0 0 0 0
0 0 0 0 0 0 1 1 1 1 1 1 1 1 1 1 1 1 1 0 0 0 0 0 0 0 0 0 1 1 1 0 0 0 0 0 0 0 0 0 0 0 0
0 0 0 0 0 0 0 1 1 1 1 1 1 1 1 1 1 1 1 1 1 0 0 0 0 0 0 0 0 0 0 0 0 0 0 0 0 0 0 0 0 0 0
0 0 0 0 0 0 0 0 0 0 0 0 0 0 0 0 0 0 1 1 1 0 0 0 0 0 0 0 0 0 0 0 0 0 0 0 0 0 0 0 0 0 0
0 0 0 0 0 0 0 0 0 0 0 0 0 0 0 0 0 0 0 0 0 0 0 0 0 0 0 0 0 0 0 0 0 0 0 0 0 0 0 0 0 0 0
0 0 0 0 0 0 0 0 0 0 0 0 0 0 0 0 0 0 0 0 0 0 0 0 0 0 0 0 0 0 0 0 0 0 0 0 0 0 0 0 0 0 0
0 0 0 0 0 0 0 0 0 0 0 0 0 0 0 0 0 0 0 0 0 0 0 0 0 0 0 0 0 0 0 0 0 0 0 0 0 0 0 0 0 0 0
0 0 0 0 0 0 0 0 0 0 0 0 0 0 0 0 0 0 0 0 0 0 0 0 0 0 0 0 0 0 0 0 0 0 0 0 0 0 0 0 0 0 0
0 0 0 0 0 0 0 0 0 0 0 0 0 0 0 0 0 0 0 0 0 0 0 0 0 0 0 0 0 0 0 0 0 0 0 0 0 0 0 0 0 0 0
0 0 0 0 0 0 0 0 0 0 0 0 0 0 0 0 0 0 0 0 0 0 0 0 0 0 0 0 0 0 0 0 0 0 0 0 0 0 0 0 0 0 0
0 0 0 0 0 0 0 0 0 0 0 0 0 0 0 0 0 0 0 0 0 0 0 0 0 0 0 0 0 0 0 0 0 0 0 0 0 0 0 0 0 0 0
0 0 0 0 0 0 0 0 0 0 0 0 0 0 0 0 0 0 0 0 0 0 0 0 0 0 0 0 0 0 0 0 0 0 0 0 0 0 0 0 0 0 0
0 0 0 0 0 0 0 0 0 0 0 0 0 0 0 0 0 0 0 0 0 0 0 0 0 0 0 0 0 0 0 0 0 0 0 0 0 0 0 0 0 0 0
0 0 0 0 0 0 0 0 0 0 0 0 0 0 0 0 0 0 0 0 0 0 0 0 0 0 0 0 0 0 0 0 0 0 0 0 0 0 0 0 0 0 0
0 0 0 0 0 0 0 0 0 0 0 0 0 0 0 0 0 0 0 0 0 0 0 0 0 0 0 0 0 0 0 0 0 0 0 0 0 0 0 0 0 0 0
0 0 0 0 0 0 0 0 0 0 0 0 0 0 0 0 0 0 0 0 0 0 0 0 0 0 0 0 0 0 0 0 0 0 0 0 0 0 0 0 0 0 0
0 0 0 0 0 0 0 0 0 0 0 0 0 0 0 0 0 0 0 0 0 0 0 0 0 0 0 0 0 0 0 0 0 0 0 0 0 0 0 0 0 0 0
0 0 0 0 0 0 0 0 0 0 0 0 0 0 0 0 0 0 0 0 0 0 0 0 0 0 0 0 0 0 0 0 0 0 0 0 0 0 0 0 0 0 0
Wind_Speed
3 4 5 4 4 4 3 3 3 2 1 0 1 2 2 1 0 0 1 1 2 3 4 3 3 3 4 5 5 4 4 4 2 2 4 5 5 6 5 5 4 5 5
6 6 5 5 5 4 3 3 2 2 2 1 1 1 1 0 0 0 1 1 2 2 2 3 3 4 4 4 4 4 4 3 3 2 2 4 3 3 4 4 4 5 4
4 5 6 5 5 5 4 3 3 3 3 3 2 2 1 1 1 2 2 2 2 2 2 2 2 3 4 4 5 4 5 5 4 4 4 3 4 3 3 3 4 4 3
5 5 6 6 6 5 5 5 4 4 4 3 3 3 1 1 2 2 2 2 3 3 3 2 2 2 2 3 3 4 4 4 5 3 4 4 3 3 3 3 3 4 4
5 6 6 5 5 5 5 5 6 6 5 4 3 2 2 2 3 3 3 3 3 3 3 3 3 3 3 3 4 3 3 3 4 4 3 3 4 5 5 5 4 3 3
5 6 6 6 6 7 7 6 7 7 6 5 4 4 3 4 4 4 4 3 3 3 4 3 3 3 3 3 4 4 4 4 4 4 3 3 3 3 4 6 5 5 3
6 6 7 7 7 8 7 7 7 7 7 6 5 4 3 3 3 3 3 3 3 4 4 3 3 3 3 4 4 3 4 4 4 4 4 4 4 3 4 5 6 6 4
5 6 6 5 6 7 6 6 6 6 6 6 5 5 5 3 3 3 3 3 3 4 5 4 3 3 3 4 4 3 4 3 4 5 5 4 4 4 4 4 5 6 5
4 4 5 5 5 6 6 5 5 5 6 6 5 5 5 5 5 5 4 4 4 4 5 4 4 4 4 4 4 3 3 3 3 4 4 4 4 4 4 4 4 5 7
3 4 4 5 4 4 4 5 5 4 4 5 5 5 5 5 5 5 6 6 6 6 5 5 5 4 4 4 3 3 3 3 3 3 3 4 4 4 4 4 4 5 7
3 3 4 4 5 4 4 5 6 6 6 5 5 5 5 5 5 5 5 6 6 6 6 5 5 5 5 4 3 4 4 4 3 3 3 4 4 4 4 4 4 5 5
2 2 3 3 4 5 5 5 5 5 5 5 5 5 6 6 6 6 6 6 6 6 6 5 5 5 5 5 5 5 4 4 5 5 4 5 4 4 4 4 5 5 5
1 2 3 3 3 4 4 4 4 5 4 5 5 5 6 6 6 6 6 6 6 6 6 6 6 6 6 6 6 5 5 5 5 5 5 5 5 5 5 5 5 5 5
1 2 2 3 3 3 3 3 4 4 4 4 4 5 6 6 5 6 6 6 6 6 6 6 6 6 6 6 6 6 6 5 5 4 4 4 4 5 5 5 5 5 5
1 1 2 2 2 3 3 3 4 4 4 4 4 4 5 5 5 5 6 6 6 6 6 6 6 6 5 5 6 6 5 5 5 5 4 5 5 6 5 5 5 5 4
2 2 2 3 3 3 3 3 4 4 4 4 4 4 5 5 5 5 5 6 6 6 6 6 6 7 6 9 10 8 6 5 5 6 5 5 5 7 8 8 7 5 4
2 2 2 3 3 3 3 3 3 4 4 4 5 5 5 5 6 6 5 5 6 6 6 6 6 6 8 11 11 10 7 6 5 5 5 5 5 5 5 7 7 6 6
2 2 2 2 3 2 3 3 3 3 4 4 5 5 5 5 6 5 5 5 5 5 5 6 6 6 8 11 12 11 7 6 6 5 5 6 6 6 6 5 5 5 5
3 3 2 2 2 3 3 3 3 3 4 4 5 5 5 6 6 6 6 5 5 6 6 6 6 6 8 11 12 11 6 5 6 6 5 5 6 8 8 6 6 6 5
2 2 2 2 2 3 2 2 3 4 4 5 5 5 5 5 6 6 6 6 5 6 6 6 6 6 7 10 12 11 5 6 6 5 5 6 7 8 8 5 5 6 6
2 2 1 2 2 2 2 2 3 4 5 5 5 5 5 6 6 6 5 5 5 6 6 7 7 6 7 9 11 12 6 6 6 5 5 5 9 10 9 7 5 7 6
2 2 1 2 2 2 2 3 4 4 4 5 5 6 6 6 5 5 6 5 5 6 6 6 7 5 5 7 9 12 11 10 7 6 5 6 10 10 10 7 7 8 6
3 2 2 3 3 2 2 4 5 4 4 5 5 5 6 6 6 5 6 5 5 4 5 5 6 6 5 6 11 12 13 12 8 6 9 10 11 10 7 7 8 5 2
3 2 2 4 4 3 3 3 4 4 4 5 5 5 5 6 5 5 4 4 4 5 5 6 6 6 6 6 5 6 7 8 8 6 7 9 10 8 6 5 4 3 2
3 3 3 5 5 4 4 3 3 3 4 5 5 5 5 5 5 5 5 6 6 6 7 6 6 7 7 9 13 10 7 6 6 6 4 3 3 3 3 3 2 2 2
3 3 4 5 5 4 4 4 3 3 4 5 5 4 4 4 4 5 6 9 10 12 13 12 11 9 12 16 15 15 14 13 11 6 4 4 3 4 4 3 3 3 2
Wind_Direction
358 15 21 27 34 34 36 36 39 23 44 251 223 212 211 225 248 288 299 251 243 235 220 228 231 228 229 232 225 225 235 238 228 259 275 268 255 251 249 246 245 248 248
18 23 25 29 29 31 31 31 28 30 29 333 257 242 225 196 195 313 336 338 320 301 253 239 239 232 233 241 239 234 236 238 209 215 262 282 290 266 253 246 238 244 246
25 25 27 25 24 21 21 22 20 29 25 18 26 27 41 13 8 350 331 324 321 334 329 297 279 259 237 239 240 236 238 248 240 217 218 240 254 291 276 247 241 242 243
26 27 29 29 26 15 16 25 21 23 24 32 39 48 34 323 314 331 342 352 2 355 341 335 327 311 281 263 253 244 246 245 253 251 234 237 236 252 282 279 253 245 246
31 32 29 28 26 24 28 26 28 27 25 36 41 43 20 355 1 8 358 345 342 345 344 332 332 332 316 296 272 259 254 249 256 255 261 259 257 246 256 273 273 271 251
29 31 25 24 23 24 30 28 31 26 21 29 34 38 27 18 16 9 357 344 335 336 342 335 331 319 310 307 297 276 261 251 255 255 253 251 250 255 254 264 273 271 266
31 28 24 23 21 22 23 23 27 21 18 25 26 22 20 23 15 354 341 336 332 331 331 329 326 323 319 314 313 303 290 267 262 259 260 258 257 267 267 272 277 275 273
30 31 24 22 21 21 21 22 23 18 16 19 16 16 14 11 2 353 343 332 325 322 329 333 331 329 332 329 323 309 307 305 285 274 267 263 265 269 269 268 276 283 277
23 24 20 19 19 18 15 15 21 17 13 13 14 16 12 11 5 359 355 349 341 339 341 338 339 340 343 338 333 326 321 319 319 309 294 279 273 268 267 266 263 265 279
20 19 17 14 13 16 11 14 16 12 6 10 14 12 10 6 3 5 2 352 347 345 344 345 340 343 345 343 336 321 317 320 315 309 314 306 295 286 273 264 263 259 265
12 14 10 7 9 14 17 17 13 12 12 12 12 13 12 11 9 6 359 352 348 347 344 340 341 342 342 338 328 320 322 312 309 312 310 304 309 300 290 279 270 266 261
15 14 9 9 10 13 16 17 11 9 6 8 13 12 10 9 9 5 355 351 349 346 346 344 344 342 338 335 328 316 316 310 306 305 305 303 305 304 299 297 285 276 270
15 15 15 5 5 7 8 10 7 2 3 10 14 11 7 7 2 358 352 351 350 350 352 352 350 347 340 338 333 325 319 310 303 301 302 305 307 302 301 298 293 289 281
7 19 8 357 354 359 0 1 359 359 1 6 9 7 0 356 354 351 348 347 349 351 351 347 344 344 340 339 334 330 325 318 316 317 316 313 311 306 305 300 299 297 291
353 345 339 337 337 344 352 354 354 352 354 2 3 355 350 349 351 351 346 345 348 347 343 342 342 341 336 338 332 324 322 320 319 319 316 315 316 314 309 303 304 307 301
288 303 320 325 327 331 337 347 350 347 350 356 351 347 350 349 348 345 342 340 342 341 341 340 336 337 334 336 336 329 317 315 316 315 313 310 313 317 317 313 308 303 298
255 271 287 299 309 316 323 328 334 343 351 350 345 345 344 342 338 336 337 335 333 332 332 329 328 325 326 330 329 327 315 308 305 305 309 310 314 312 312 316 315 310 305
248 264 278 294 308 316 324 329 336 340 343 342 338 336 334 330 327 327 326 322 321 319 316 316 314 314 319 325 324 323 314 306 304 302 302 305 312 314 314 312 311 309 310
243 252 265 287 301 309 314 329 333 336 335 330 327 324 323 321 321 320 317 315 314 313 311 309 310 311 313 319 321 324 311 307 306 304 302 301 301 308 315 309 305 305 306
244 254 273 291 296 300 310 322 318 322 319 318 318 319 319 314 311 310 308 309 308 306 308 306 304 303 304 311 316 318 307 304 302 300 298 294 299 304 307 301 297 296 300
250 257 261 279 284 299 323 318 314 312 315 319 319 317 315 309 305 306 306 308 307 307 305 303 300 297 298 306 312 314 306 299 297 295 295 292 297 299 301 300 291 291 298
251 248 255 284 297 310 315 306 302 312 322 320 316 313 312 309 310 309 308 309 307 304 302 301 299 295 295 299 306 309 305 301 293 290 290 290 296 297 298 298 295 298 300
243 252 251 281 297 306 297 285 298 314 317 312 305 305 308 310 311 307 305 305 302 296 296 295 295 298 298 300 305 305 304 302 297 290 290 295 297 297 294 299 302 303 293
249 257 263 275 287 296 299 287 299 309 306 298 300 304 307 308 309 304 297 291 290 289 291 293 293 295 295 294 296 295 297 297 296 295 293 293 295 296 300 305 304 302 290
253 251 252 264 274 283 286 293 300 300 293 292 295 300 298 298 301 297 288 287 277 273 282 281 281 286 289 289 296 298 294 292 285 295 294 292 295 296 297 301 306 307 307
253 257 257 263 271 274 277 285 290 284 280 288 293 293 293 294 294 298 301 293 289 293 293 291 290 286 287 296 297 299 300 303 302 298 281 281 282 283 284 285 292 293 292